PGT991X LTFJ-LBSF

Flight info

Callsign PGT991X
Flight time N/A
Altitude 38000
Route VADEN1J/06L VADEN DCT DEDIN
Aircraft A20N/M-SDE2E3FGHIRWXY/LB1

Departure

Time 2026-04-30 14:22
Airport Istanbul Sabiha Gökçen International Airport (LTFJ)

Arrival

Time N/A
Airport Sofia Airport (LBSF)
Time Latitude Longitude Altitude Speed Heading
2026-04-30 13:55 40.90568 29.31547 320 ft 0 kts 333°
2026-04-30 14:11 40.90559 29.31552 321 ft 2 kts 332°
2026-04-30 14:11 40.90546 29.31562 321 ft 2 kts 332°
2026-04-30 14:11 40.90535 29.31569 321 ft 0 kts 332°
2026-04-30 14:12 40.90524 29.31578 321 ft 2 kts 310°
2026-04-30 14:12 40.90516 29.31594 321 ft 2 kts 286°
2026-04-30 14:12 40.90515 29.31614 321 ft 2 kts 261°
2026-04-30 14:12 40.90517 29.31625 321 ft 0 kts 247°
2026-04-30 14:13 40.90520 29.31634 321 ft 0 kts 243°
2026-04-30 14:16 40.90517 29.31625 321 ft 2 kts 243°
2026-04-30 14:17 40.90505 29.31591 321 ft 6 kts 244°
2026-04-30 14:17 40.90467 29.31489 321 ft 14 kts 245°
2026-04-30 14:17 40.90397 29.31449 321 ft 12 kts 157°
2026-04-30 14:17 40.90314 29.31496 320 ft 13 kts 169°
2026-04-30 14:18 40.90242 29.31404 321 ft 18 kts 244°
2026-04-30 14:18 40.90187 29.31253 321 ft 18 kts 244°
2026-04-30 14:18 40.90062 29.30913 320 ft 24 kts 244°
2026-04-30 14:19 40.89916 29.30517 320 ft 23 kts 244°
2026-04-30 14:19 40.89846 29.30324 320 ft 23 kts 245°
2026-04-30 14:19 40.89770 29.30120 320 ft 25 kts 244°
2026-04-30 14:20 40.89692 29.29908 320 ft 25 kts 244°
2026-04-30 14:20 40.89617 29.29701 320 ft 24 kts 243°
2026-04-30 14:20 40.89468 29.29301 320 ft 23 kts 239°
2026-04-30 14:21 40.89357 29.29279 320 ft 13 kts 154°
2026-04-30 14:21 40.89283 29.29343 320 ft 12 kts 105°
2026-04-30 14:21 40.89288 29.29382 320 ft 0 kts 65°
2026-04-30 14:22 40.89295 29.29404 320 ft 11 kts 65°
2026-04-30 14:22 40.89814 29.30829 347 ft 146 kts 60°
2026-04-30 14:22 40.90258 29.32040 945 ft 150 kts 60°
2026-04-30 14:23 40.91179 29.34502 2366 ft 157 kts 61°
2026-04-30 14:23 40.92289 29.37389 3268 ft 201 kts 63°
2026-04-30 14:24 40.93606 29.41016 4395 ft 240 kts 64°
2026-04-30 14:24 40.94344 29.43106 4986 ft 260 kts 64°
2026-04-30 14:25 40.95983 29.47605 6473 ft 285 kts 63°
2026-04-30 14:25 40.97755 29.52441 8252 ft 297 kts 63°
2026-04-30 14:26 40.99585 29.57438 9951 ft 309 kts 62°
2026-04-30 14:26 41.00871 29.59698 10642 ft 317 kts 37°
2026-04-30 14:26 41.05069 29.61004 11953 ft 320 kts 343°
2026-04-30 14:27 41.07188 29.60186 12784 ft 322 kts 338°
2026-04-30 14:27 41.09357 29.59299 13584 ft 326 kts 338°
2026-04-30 14:27 41.11546 29.58427 14377 ft 330 kts 339°
2026-04-30 14:28 41.15442 29.55644 15901 ft 319 kts 301°
2026-04-30 14:28 41.16394 29.53042 16691 ft 315 kts 288°
2026-04-30 14:28 41.17213 29.50336 17440 ft 319 kts 289°
2026-04-30 14:28 41.18089 29.47630 18148 ft 322 kts 290°
2026-04-30 14:29 41.19921 29.42207 19594 ft 326 kts 291°
2026-04-30 14:29 41.21491 29.37662 20776 ft 329 kts 292°
2026-04-30 14:30 41.24714 29.28421 22982 ft 334 kts 292°
2026-04-30 14:31 41.26669 29.22829 24231 ft 337 kts 292°
2026-04-30 14:31 41.28659 29.17128 25398 ft 342 kts 292°
2026-04-30 14:31 41.29647 29.14293 25927 ft 345 kts 292°
2026-04-30 14:32 41.31681 29.08445 26952 ft 351 kts 292°
2026-04-30 14:32 41.32712 29.05477 27417 ft 354 kts 291°
2026-04-30 14:32 41.33744 29.02505 27915 ft 356 kts 291°
2026-04-30 14:33 41.34782 28.99506 28394 ft 358 kts 291°
2026-04-30 14:33 41.36874 28.93458 29250 ft 364 kts 291°
2026-04-30 14:33 41.37939 28.90371 29681 ft 367 kts 291°
2026-04-30 14:34 41.38999 28.87298 30087 ft 369 kts 291°
2026-04-30 14:34 41.40085 28.84148 30499 ft 371 kts 291°
2026-04-30 14:34 41.41157 28.81036 30905 ft 373 kts 291°
2026-04-30 14:34 41.42235 28.77904 31292 ft 374 kts 291°
2026-04-30 14:35 41.44415 28.71554 31984 ft 378 kts 291°
2026-04-30 14:35 41.45503 28.68380 32370 ft 378 kts 291°
2026-04-30 14:35 41.46586 28.65221 32812 ft 376 kts 291°
2026-04-30 14:36 41.47666 28.62063 33233 ft 375 kts 291°
2026-04-30 14:36 41.48735 28.58933 33610 ft 374 kts 291°
2026-04-30 14:36 41.49816 28.55765 33979 ft 373 kts 291°
2026-04-30 14:36 41.50885 28.52622 34324 ft 372 kts 291°
2026-04-30 14:37 41.51944 28.49513 34657 ft 372 kts 291°
2026-04-30 14:37 41.53007 28.46385 34942 ft 371 kts 291°
2026-04-30 14:37 41.54066 28.43263 35222 ft 370 kts 291°
2026-04-30 14:37 41.55137 28.40104 35498 ft 370 kts 291°
2026-04-30 14:38 41.56185 28.37010 35767 ft 368 kts 291°
2026-04-30 14:38 41.57238 28.33899 36021 ft 368 kts 290°
2026-04-30 14:38 41.58278 28.30815 36274 ft 367 kts 290°
2026-04-30 14:38 41.59329 28.27709 36506 ft 367 kts 290°
2026-04-30 14:39 41.60388 28.24567 36776 ft 368 kts 290°
2026-04-30 14:39 41.61428 28.21474 37004 ft 369 kts 290°
2026-04-30 14:39 41.62475 28.18359 37207 ft 370 kts 290°
2026-04-30 14:40 41.64587 28.12065 37644 ft 371 kts 290°
2026-04-30 14:40 41.65644 28.08917 37796 ft 373 kts 290°
2026-04-30 14:40 41.66721 28.05807 37958 ft 374 kts 292°
2026-04-30 14:40 41.67940 28.02708 38087 ft 377 kts 295°
2026-04-30 14:41 41.70700 27.96720 38090 ft 378 kts 298°
2026-04-30 14:41 41.73535 27.90846 38088 ft 379 kts 298°
2026-04-30 14:42 41.76387 27.84931 38088 ft 379 kts 298°
2026-04-30 14:42 41.79245 27.78996 38064 ft 379 kts 298°
2026-04-30 14:43 41.82092 27.73068 38069 ft 379 kts 298°
2026-04-30 14:43 41.84922 27.67168 38069 ft 377 kts 298°
2026-04-30 14:44 41.87753 27.61254 38106 ft 377 kts 298°
2026-04-30 14:44 41.90572 27.55351 38077 ft 377 kts 298°
2026-04-30 14:45 41.93399 27.49420 38062 ft 376 kts 298°
2026-04-30 14:45 41.96196 27.43532 38076 ft 376 kts 298°
2026-04-30 14:46 41.99012 27.37597 38078 ft 376 kts 298°
2026-04-30 14:46 42.01846 27.31616 38057 ft 377 kts 297°
2026-04-30 14:47 42.04432 27.25584 38063 ft 373 kts 292°
2026-04-30 14:47 42.06548 27.19230 38077 ft 371 kts 287°
2026-04-30 14:48 42.08154 27.12682 38066 ft 368 kts 282°
2026-04-30 14:48 42.08787 27.09337 38248 ft 369 kts 282°
2026-04-30 14:48 42.09399 27.06021 38187 ft 367 kts 281°
2026-04-30 14:49 42.10608 26.99404 38084 ft 365 kts 281°
2026-04-30 14:49 42.11816 26.92764 38113 ft 366 kts 281°
2026-04-30 14:50 42.13616 26.82800 38073 ft 366 kts 281°
2026-04-30 14:51 42.15404 26.72822 38077 ft 367 kts 281°
2026-04-30 14:52 42.17193 26.62799 38106 ft 368 kts 282°
2026-04-30 14:52 42.18988 26.52722 38094 ft 370 kts 281°
2026-04-30 14:53 42.20768 26.42625 38086 ft 372 kts 281°
2026-04-30 14:54 42.23149 26.29043 38100 ft 375 kts 281°
2026-04-30 14:55 42.24941 26.18762 38143 ft 377 kts 281°
2026-04-30 14:56 42.27319 26.05030 38092 ft 377 kts 281°
2026-04-30 14:57 42.29098 25.94666 38131 ft 378 kts 281°
2026-04-30 14:57 42.30273 25.87825 37623 ft 374 kts 281°
2026-04-30 14:58 42.31424 25.81054 36803 ft 367 kts 281°
2026-04-30 14:58 42.31990 25.77722 36261 ft 366 kts 282°
2026-04-30 14:58 42.33126 25.71021 35316 ft 371 kts 281°
2026-04-30 14:59 42.34327 25.64344 34049 ft 359 kts 282°
2026-04-30 15:00 42.36129 25.54808 31897 ft 349 kts 281°
2026-04-30 15:00 42.37316 25.48424 30564 ft 350 kts 280°
2026-04-30 15:01 42.38475 25.42135 29625 ft 340 kts 281°
2026-04-30 15:01 42.39045 25.39042 29218 ft 335 kts 281°
2026-04-30 15:01 42.40148 25.33007 28405 ft 326 kts 279°
2026-04-30 15:02 42.40693 25.30024 28000 ft 323 kts 279°
2026-04-30 15:02 42.41225 25.27107 27619 ft 320 kts 279°
2026-04-30 15:03 42.42786 25.18522 26500 ft 311 kts 279°
2026-04-30 15:03 42.43834 25.12724 25741 ft 317 kts 279°
2026-04-30 15:04 42.44870 25.06994 24985 ft 313 kts 279°
2026-04-30 15:04 42.46423 24.98343 23867 ft 320 kts 279°
2026-04-30 15:05 42.47977 24.89660 22539 ft 316 kts 280°
2026-04-30 15:06 42.49016 24.83855 21573 ft 317 kts 279°
2026-04-30 15:06 42.50048 24.78057 20570 ft 318 kts 279°
2026-04-30 15:07 42.51065 24.72292 20181 ft 316 kts 280°
2026-04-30 15:07 42.52083 24.66562 19477 ft 309 kts 279°
2026-04-30 15:08 42.53095 24.60774 17504 ft 325 kts 281°
2026-04-30 15:08 42.54641 24.51988 16125 ft 317 kts 281°
2026-04-30 15:09 42.55645 24.46227 15118 ft 313 kts 281°
2026-04-30 15:09 42.56644 24.40490 14141 ft 311 kts 282°
2026-04-30 15:10 42.57634 24.34798 13183 ft 309 kts 282°
2026-04-30 15:11 42.59586 24.23476 11305 ft 308 kts 282°
2026-04-30 15:11 42.60554 24.17840 10433 ft 305 kts 284°
2026-04-30 15:12 42.61976 24.09549 9315 ft 285 kts 285°
2026-04-30 15:13 42.62846 24.04465 8762 ft 273 kts 285°
2026-04-30 15:14 42.64532 23.94549 7412 ft 267 kts 286°
2026-04-30 15:14 42.65767 23.87245 6394 ft 262 kts 287°
2026-04-30 15:16 42.67638 23.75709 5919 ft 232 kts 281°
2026-04-30 15:17 42.68173 23.66885 5092 ft 235 kts 278°
2026-04-30 15:18 42.68731 23.57041 3722 ft 178 kts 278°
2026-04-30 15:19 42.69001 23.52459 2978 ft 143 kts 278°